Regional Weather Roundup
Issued by NWS

Home | Current Version | Previous Version | Graphics & Text | Print | Product List | Glossary On
Versions: 1 2 3 4 5 6 7 8 9 10 11 12 13 14 15 16 17 18 19 20 21 22 23 24 25 26 27 28 29 30 31 32 33 34 35 36 37 38 39 40 41 42 43 44 45 46 47 48 49 50
000
ASUS43 KFSD 252302
RWRSD

WEATHER ROUNDUP FOR SOUTH DAKOTA
NATIONAL WEATHER SERVICE SIOUX FALLS SD
600 PM CDT THU MAY 25 2017

NOTE: "FAIR" INDICATES FEW OR NO CLOUDS BELOW 12,000 FEET WITH NO
SIGNIFICANT WEATHER AND/OR OBSTRUCTIONS TO VISIBILITY.


SDZ001>005-009-010-012>017-260000-
NORTHWEST AND NORTH CENTRAL SOUTH DAKOTA

CITY           SKY/WX    TMP DP  RH WIND       PRES   REMARKS
BUFFALO          N/A     57  42  57 W39G48    29.58R
FAITH            N/A     71  35  26 W22G30    29.55R
MOBRIDGE       SUNNY     77  36  22 NW13      29.46R
$$

SDZ012>016-024>037-041>051-057-063-072>074-260000-
SOUTHWEST AND SOUTH CENTRAL SOUTH DAKOTA

CITY           SKY/WX    TMP DP  RH WIND       PRES   REMARKS
RAPID CTY ARPT PTSUNNY   69  36  29 E5        29.59R
PIERRE         MOSUNNY   75  33  21 NW14G22   29.51R
CUSTER         MOSUNNY   61  25  25 W14G21    29.67R
ELLSWORTH AFB  CLOUDY    69  32  25 N13       29.59S
PHILIP         MOSUNNY   75  33  21 NW10G21   29.55R
PINE RIDGE     PTSUNNY   71  48  43 NW9       29.59R
WINNER         FAIR      73  45  36 NW6       29.55R
$$

SDZ004>011-016>023-039-040-260000-
NORTHEAST SOUTH DAKOTA

CITY           SKY/WX    TMP DP  RH WIND       PRES   REMARKS
ABERDEEN       MOSUNNY   73  49  42 S8        29.47R
WATERTOWN      PTSUNNY   62  55  77 SW12      29.52R
BROOKINGS      LGT RAIN  60  54  80 S7        29.56R
SISSETON         N/A     65  56  72 S9        29.51R
$$

SDZ017-020-022-023-036>040-048>070-260000-
SOUTHEAST SOUTH DAKOTA

CITY           SKY/WX    TMP DP  RH WIND       PRES   REMARKS
SIOUX FALLS    CLOUDY    71  53  52 S9        29.55S
HURON          CLOUDY    67  56  67 S8        29.51R
CHAMBERLAIN    MOSUNNY   73  47  40 NW6       29.53R
MITCHELL       MOSUNNY   71  54  54 S10       29.53R
YANKTON        MOSUNNY   74  52  46 SW7       29.54R
$$

ABBREVIATIONS USED IN REMARKS
   TC - TEMPERATURE IN CELSIUS
  WCI - WIND CHILL INDEX
   HX - HEAT INDEX
  VSB - VISIBILITY




USA.gov is the U.S. government's official web portal to all federal, state and local government web resources and services.